Location: Dackenheim
(49.5215°N, 8.1854°E)
Time: 00:53:36
(UTC+00:00)

COBE Rocket - Pass Details

Date: 19 May 2025
Orbit: 676 x 772 km, 97.1° (Epoch: 15 June)

Event Time Altitude Azimuth Distance (km) Brightness Sun altitude
Rises 21:50:50 0° 13° (NNE) 3,229 8.2 -17.5°
Reaches altitude 10° 21:53:08 10° 14° (NNE) 2,309 7.3 -17.6°
Maximum altitude 21:58:16 82° 102° (ESE) 784 3.9 -18.0°
Enters shadow 22:00:58 29° 188° (S) 1,390 4.8 -18.1°
